Wind_Speed
69 69 69 69 69 69 69 69 69 69 69 69 70 70 69 70 72 74 76 77 76 75 73 73 70 68 67 67 66 67 68 68 66 63 62 62 63 64 64 64 64 63 63 62 62 62 62 62 63 63 64 65 66 67 67 66 64 63 62 62 61 59 58 57 56 56 58 58 57 57 57 56 54 54
68 68 68 68 69 69 69 69 69 69 69 69 70 70 70 70 71 73 75 77 77 75 74 74 72 69 67 65 63 64 66 67 66 63 62 61 62 63 64 64 64 64 63 62 61 61 61 61 62 63 63 64 66 67 68 68 65 64 64 64 63 61 59 58 57 57 58 59 59 58 58 58 56 56
64 65 66 67 68 68 68 69 69 69 70 70 70 70 70 70 71 71 73 76 78 76 74 75 73 71 69 66 62 61 62 65 67 64 61 61 61 62 64 64 64 64 63 62 61 61 61 61 61 63 63 64 65 66 67 68 67 66 65 64 63 62 61 60 59 58 58 59 60 60 59 59 58 57
62 63 64 64 65 66 67 68 68 69 69 69 70 70 70 70 71 71 72 75 78 76 74 74 74 73 71 68 65 63 59 59 65 66 62 61 61 61 63 64 64 64 63 62 61 61 61 61 61 62 63 63 65 66 66 68 68 68 66 64 63 63 62 61 60 59 59 59 60 61 60 60 59 58
60 61 62 63 63 63 65 66 67 67 68 68 68 68 69 69 69 69 70 72 76 76 74 73 73 72 72 71 68 66 61 58 63 66 65 63 62 61 62 63 64 64 63 61 61 62 61 61 61 62 63 63 64 66 66 67 68 68 66 65 64 64 63 62 61 60 60 60 60 61 61 61 60 59
59 59 60 60 60 60 61 63 64 65 66 67 67 67 67 68 68 68 68 69 72 74 73 72 71 72 72 71 69 68 65 62 61 62 65 65 64 63 62 62 63 63 63 61 60 61 61 60 61 62 63 64 64 65 66 67 67 67 67 66 65 64 64 63 62 61 61 61 61 60 60 61 61 60
58 58 58 58 57 57 59 60 60 61 62 63 65 65 65 66 67 66 66 67 69 71 72 70 69 71 70 68 69 68 66 65 62 59 63 66 66 64 64 63 63 61 61 61 60 60 60 59 60 61 62 63 64 64 65 66 66 66 66 66 65 65 64 63 62 61 61 61 61 60 60 60 60 60
57 57 57 56 55 56 57 58 58 58 58 59 61 62 63 63 64 65 65 64 65 68 69 69 68 68 67 64 65 67 64 64 62 57 59 65 67 66 65 65 64 61 60 61 59 58 59 58 59 59 60 61 62 63 64 64 64 65 65 65 65 64 63 63 62 60 60 60 60 60 60 60 60 60
56 56 56 55 55 55 56 56 56 56 56 57 58 59 60 61 61 63 63 62 63 64 66 68 67 67 66 62 63 66 64 61 58 53 55 63 67 67 65 65 66 62 58 60 59 57 56 56 56 57 58 60 61 62 62 62 62 63 64 64 63 63 62 62 61 60 60 60 60 59 59 59 59 59
55 55 55 55 55 55 55 55 55 54 55 56 57 57 58 59 59 60 61 61 61 62 63 65 65 65 65 63 63 65 63 60 55 50 53 60 64 67 66 64 68 65 58 58 58 56 55 54 54 55 56 58 59 60 60 61 61 62 62 62 62 61 61 61 60 60 59 59 59 58 58 58 58 58
54 54 54 54 54 54 54 53 53 52 53 54 55 56 56 57 58 59 60 60 60 61 62 62 62 63 63 62 62 62 60 58 52 48 51 56 60 66 65 62 68 69 61 57 57 54 53 53 52 53 53 55 57 58 59 60 60 60 60 60 60 60 59 59 59 59 58 58 58 57 57 57 57 57
51 52 52 52 51 51 50 49 49 49 50 50 52 54 54 55 57 58 59 60 59 60 61 61 61 60 59 56 54 56 57 55 52 50 50 50 54 62 64 61 66 70 63 57 56 52 50 50 51 51 51 52 54 56 57 58 58 58 58 59 59 59 58 58 57 57 57 57 57 56 56 56 56 56
48 48 48 48 47 45 45 45 45 45 45 45 47 49 50 51 53 55 57 59 60 60 60 61 60 59 59 54 47 49 53 53 53 50 44 44 51 57 58 58 63 69 65 58 56 54 49 48 49 50 50 50 51 53 55 56 57 57 57 58 58 58 57 57 56 56 56 56 56 55 55 55 55 56
46 45 44 43 41 40 40 40 40 40 40 40 42 44 45 46 49 52 54 57 59 59 60 61 60 59 61 57 48 46 50 52 53 47 41 45 50 50 50 51 55 65 66 58 55 56 52 47 45 46 49 49 49 51 53 54 55 56 56 57 57 57 56 56 55 55 55 55 55 54 54 54 55 55
44 42 39 38 36 36 35 35 36 37 38 38 39 41 42 43 44 48 53 55 57 59 60 60 60 60 60 59 52 47 46 48 48 44 41 43 47 47 48 50 55 64 65 56 53 55 52 47 43 43 46 48 49 49 50 52 53 54 55 56 56 56 55 55 55 54 54 54 54 53 53 53 54 54
41 39 37 34 33 33 33 34 35 37 38 38 38 39 39 40 42 44 49 53 55 57 59 59 60 60 60 59 56 51 46 42 40 40 39 39 41 44 46 52 59 62 60 55 52 52 50 47 44 43 44 46 48 48 48 49 51 53 54 54 54 54 54 54 54 53 53 53 53 52 52 52 53 53
40 37 34 32 31 32 33 36 38 39 40 39 39 40 40 42 43 43 45 48 51 54 57 59 60 59 59 59 57 54 49 41 37 39 40 36 37 40 44 52 57 54 52 53 52 50 50 47 45 45 44 44 45 46 46 47 49 50 51 51 52 52 52 52 52 52 52 52 51 51 51 51 52 52
37 33 30 31 33 35 36 38 40 41 43 43 43 43 43 44 44 44 45 46 49 52 55 59 61 59 58 59 57 53 50 44 39 40 40 37 36 38 41 47 50 46 47 51 51 51 51 47 46 46 44 42 42 42 43 44 46 47 48 49 50 50 50 50 49 49 50 50 50 50 50 50 51 51
33 30 30 33 36 38 39 40 41 42 43 45 46 45 45 45 44 44 45 46 48 51 55 59 61 59 57 58 56 53 49 44 39 39 39 37 36 34 35 40 43 43 45 49 52 53 51 47 45 44 42 41 40 38 39 41 43 44 45 46 47 47 48 48 48 48 48 49 49 49 49 49 49 49
29 29 31 35 37 39 41 41 41 41 41 44 48 48 46 45 44 44 46 45 45 46 50 54 57 57 55 54 54 51 49 45 39 38 39 39 38 36 35 38 42 43 45 49 53 52 49 45 43 41 40 40 39 36 36 38 39 40 41 42 43 44 46 46 46 47 47 47 47 47 46 46 47 47
29 30 32 35 38 39 40 39 39 39 39 41 45 46 46 45 45 46 46 44 40 40 43 45 46 49 49 50 50 48 48 46 39 38 41 42 41 41 40 42 44 45 46 49 49 49 46 41 40 40 38 38 38 36 35 34 34 35 37 39 40 41 43 44 44 44 44 44 44 44 44 44 44 45
31 32 33 34 37 38 39 38 37 37 39 39 40 42 45 46 47 45 44 41 36 35 38 39 39 41 43 44 46 46 48 49 42 40 45 45 42 44 44 44 45 45 46 47 46 44 42 38 38 38 36 36 37 35 31 30 31 33 34 36 37 38 39 40 40 41 41 41 41 41 41 42 42 43
34 34 35 35 36 36 37 39 38 36 36 37 37 38 41 44 44 41 39 36 32 30 34 36 36 38 39 41 43 44 49 52 46 42 46 45 42 44 46 45 45 45 45 45 42 39 38 37 37 36 35 36 35 32 29 30 30 31 31 33 34 35 35 36 37 37 38 38 38 39 39 40 40 41
38 37 38 38 36 36 38 41 40 35 33 34 33 35 38 41 41 38 33 30 27 25 26 28 32 35 37 40 42 44 48 52 49 45 45 44 43 45 45 44 45 44 42 41 38 36 36 37 36 35 35 34 31 29 30 30 29 29 29 30 31 32 33 34 35 35 35 36 36 37 38 38 39 39
41 41 41 42 40 38 39 38 34 29 28 30 30 33 38 38 35 30 23 17 15 14 16 19 24 28 30 34 38 40 43 46 46 44 44 44 44 44 44 44 42 40 38 37 35 34 35 36 35 34 34 31 28 29 30 29 28 28 27 27 29 30 31 32 32 32 33 34 34 35 35 36 36 37
44 45 45 45 43 39 33 30 27 24 24 27 30 33 35 33 28 20 12 8 7 7 7 12 18 20 21 26 32 35 36 37 39 41 42 42 42 43 42 41 39 37 35 36 35 34 34 34 33 32 31 29 28 29 29 27 26 26 26 26 28 28 29 29 29 30 31 32 32 32 33 33 33 33
45 45 46 46 44 37 28 25 26 25 24 26 29 27 24 21 19 15 11 9 9 9 8 9 14 17 20 26 30 31 31 33 36 39 40 39 39 40 39 37 36 36 36 36 36 34 32 33 32 30 30 29 29 30 28 25 25 25 25 25 25 25 25 26 27 28 28 28 29 29 29 30 30 30
39 40 39 38 35 30 25 24 24 22 20 19 17 13 10 11 12 14 14 12 11 12 12 13 15 18 24 30 30 28 30 33 36 38 38 36 36 36 36 35 35 36 37 36 35 32 31 32 31 29 29 30 29 29 27 26 26 24 22 22 23 23 23 25 25 25 25 25 26 26 27 27 27 28
29 29 28 27 26 24 22 20 17 15 13 11 10 8 9 11 12 14 15 15 14 14 15 17 18 20 25 30 27 26 30 34 36 36 34 33 34 35 35 36 36 37 37 35 32 30 31 31 29 28 29 29 28 28 27 26 25 22 21 21 22 22 23 23 22 22 23 24 23 23 24 24 25 26
20 20 20 21 19 16 12 9 8 9 9 9 10 11 13 15 15 15 15 16 16 16 16 19 21 21 23 26 25 25 30 32 33 32 31 32 33 34 35 36 36 36 35 32 29 30 30 29 28 28 29 28 27 27 26 25 23 21 22 22 21 21 21 20 20 20 21 21 20 20 21 22 23 24
15 14 13 11 9 5 2 2 3 5 8 9 10 13 14 13 13 13 14 15 16 16 15 19 21 20 22 26 25 24 25 27 28 29 29 30 31 32 33 34 34 33 31 29 29 29 29 28 28 28 28 27 26 26 24 24 23 22 23 22 21 21 19 18 18 19 18 17 18 18 19 20 21 22
13 13 11 8 6 5 3 2 3 6 8 9 10 11 9 6 6 10 12 14 16 16 16 19 22 24 27 30 29 25 22 23 25 27 29 29 30 31 32 32 30 29 29 29 29 28 27 27 27 28 27 26 25 25 24 24 23 23 22 22 21 20 18 17 16 16 15 16 16 16 17 18 19 20
14 14 12 7 4 4 4 3 4 5 5 6 7 6 2 0 2 4 8 12 14 17 18 21 25 28 30 30 28 24 21 21 22 24 26 27 27 28 29 28 27 27 28 29 28 27 27 28 27 27 27 25 24 25 25 24 23 22 22 21 19 18 17 16 15 14 14 14 14 14 16 17 18 18
15 13 10 6 5 6 5 4 6 6 4 4 5 5 2 3 4 4 4 6 9 12 14 16 20 24 25 24 23 21 21 21 22 22 23 23 24 26 27 26 27 27 28 28 27 27 28 27 26 26 26 25 24 25 24 24 23 22 22 21 18 17 16 15 14 13 12 12 12 13 14 14 15 16
13 10 8 6 6 6 6 6 6 7 5 3 3 4 5 4 7 6 4 4 5 7 9 11 14 16 18 19 20 20 21 21 21 22 23 23 23 24 26 26 26 28 28 27 26 26 27 26 25 26 26 25 25 25 24 24 23 22 21 19 18 16 15 14 13 11 11 10 10 11 11 11 12 13
11 9 7 6 6 5 6 6 6 6 5 3 1 2 5 5 6 5 3 2 3 4 6 7 10 13 16 19 20 21 22 22 22 22 24 24 23 25 26 26 28 28 27 26 25 26 26 25 25 26 26 25 25 25 24 24 23 22 20 18 17 16 15 14 13 12 10 10 10 10 10 9 10 11
9 8 7 6 7 6 6 7 7 6 6 5 1 1 2 2 2 2 2 4 6 7 8 9 11 13 16 19 21 22 23 23 22 24 25 24 23 26 27 27 29 28 25 24 25 26 25 26 27 27 27 26 26 26 25 24 24 22 19 17 16 15 14 13 12 11 9 9 8 8 8 8 8 10
7 7 7 7 7 7 8 8 8 8 8 7 5 3 4 4 3 2 2 5 8 9 10 11 11 12 14 17 19 20 23 23 24 26 26 23 23 25 26 27 26 25 24 25 25 25 25 26 28 28 28 27 26 25 25 24 24 23 20 17 15 13 12 12 10 9 8 7 7 7 8 7 8 9
7 7 7 8 8 9 9 10 10 10 9 8 7 5 5 6 7 6 4 4 5 8 9 10 10 10 11 13 15 18 20 22 24 26 26 23 22 24 26 25 24 24 25 25 25 24 25 27 28 29 29 27 26 25 25 24 24 22 20 18 15 13 11 10 9 7 6 6 5 6 7 8 7 8
7 7 8 9 10 11 11 11 11 10 9 7 6 4 5 7 8 8 6 4 3 5 7 8 8 7 7 10 13 16 19 20 22 24 24 23 23 24 24 23 23 24 24 23 23 24 25 27 28 29 29 29 28 27 26 24 23 21 19 18 16 14 12 10 7 5 5 4 3 4 5 6 6 6
7 7 7 8 9 9 10 10 9 9 8 7 5 4 5 6 8 8 7 5 3 2 3 6 6 3 4 7 11 14 16 19 21 22 23 23 23 23 23 23 23 23 23 22 22 24 25 26 29 30 31 30 30 28 27 25 24 23 20 18 16 15 13 10 7 5 4 3 2 2 3 3 3 4
9 9 8 8 8 8 9 9 9 9 9 8 7 5 4 4 6 9 8 6 4 2 1 4 4 2 3 6 10 12 13 16 18 20 22 23 23 23 23 23 22 21 20 20 21 23 24 27 29 31 32 30 28 27 28 26 24 23 21 19 17 16 14 11 8 6 6 4 2 2 2 2 3 3
9 10 11 11 10 10 10 9 9 9 9 8 6 6 4 2 3 8 9 7 4 3 1 2 4 2 3 7 9 11 12 14 17 19 21 22 22 22 21 20 19 18 18 19 20 22 23 26 29 31 32 30 27 27 28 26 23 21 20 19 18 17 15 13 10 7 7 6 4 3 2 2 1 2
9 10 11 12 12 11 10 10 9 7 7 5 4 7 4 1 4 9 9 7 5 4 3 1 2 1 5 9 10 11 13 14 16 19 20 20 21 20 19 17 17 16 16 17 19 20 23 28 30 31 31 29 27 27 27 25 22 21 20 19 19 18 16 14 12 9 9 8 6 3 2 2 1 0
8 8 9 10 12 12 11 10 8 6 4 2 6 7 3 3 8 10 8 6 5 4 4 4 4 6 10 12 13 12 13 14 15 16 18 18 19 19 17 16 16 15 15 16 18 21 26 30 31 30 30 29 28 27 25 24 22 21 19 18 18 18 17 15 13 11 10 9 7 4 3 3 2 2
Wind_Direction
275 274 273 272 271 270 268 267 266 265 265 264 264 264 264 264 266 267 267 267 268 268 268 267 266 266 265 266 267 267 266 265 263 261 258 258 258 258 257 257 256 256 256 256 256 257 257 257 257 257 257 257 257 257 257 256 254 254 253 253 253 253 252 252 251 251 252 251 249 248 248 247 247 248
276 275 274 272 271 270 269 267 266 265 264 263 263 263 262 262 262 263 265 265 266 266 267 267 266 265 264 265 266 266 266 265 263 261 259 257 257 257 257 256 255 255 255 255 255 255 255 255 256 256 256 256 256 256 257 256 255 254 253 253 252 252 252 252 251 250 250 250 250 249 248 248 248 248
277 276 275 273 272 270 268 267 266 265 264 263 262 262 261 261 261 261 262 263 263 263 264 265 265 265 264 263 262 263 265 265 263 261 259 256 255 255 256 255 254 254 254 254 254 253 253 253 254 254 254 254 255 255 256 256 256 254 253 253 253 253 252 251 251 250 249 249 249 248 248 248 248 248
279 277 275 274 273 271 269 267 266 265 264 263 262 261 261 260 260 260 260 261 262 262 261 262 262 263 263 261 260 259 260 263 264 262 259 257 254 253 255 255 254 253 253 253 253 252 252 252 252 252 253 253 253 253 254 255 255 255 254 253 253 253 252 251 250 250 249 248 248 248 248 247 247 248
280 278 277 275 273 272 270 268 266 265 264 263 262 261 261 260 259 260 260 261 261 261 260 260 261 261 261 260 259 258 257 258 262 262 260 257 255 252 252 254 254 253 252 251 251 251 251 251 251 251 251 252 252 253 253 253 254 255 255 254 253 252 252 251 250 250 249 249 248 248 248 248 247 247
282 280 278 276 275 273 271 269 267 266 264 263 262 261 261 260 259 258 259 260 261 260 259 259 259 259 259 259 258 257 256 256 257 260 260 258 256 253 252 253 254 253 252 251 250 250 250 250 251 251 251 251 251 252 253 253 253 253 254 254 253 252 252 251 251 250 250 249 249 249 248 248 248 248
284 282 281 279 277 275 273 271 269 267 265 264 263 262 261 260 259 258 257 258 259 260 258 258 257 257 258 259 258 256 256 256 255 256 258 258 257 255 252 253 254 252 251 251 250 249 249 249 250 250 251 251 251 251 251 252 252 253 253 254 254 253 253 252 251 251 250 250 250 250 249 249 249 248
283 282 281 280 279 277 275 273 272 270 268 266 265 264 262 261 260 259 258 257 257 259 259 257 256 256 256 256 257 256 255 255 255 254 255 256 257 256 254 254 255 253 251 250 250 248 248 249 249 250 250 251 252 251 251 252 252 253 253 253 253 254 253 253 252 251 250 250 250 250 250 250 250 249
283 282 281 280 279 277 275 274 273 272 270 269 267 265 264 262 262 261 259 258 257 257 258 257 256 255 254 253 253 254 254 254 255 254 253 253 254 255 255 255 255 254 252 251 250 249 248 248 249 250 251 251 251 252 252 252 252 252 252 252 252 253 253 253 252 251 250 250 250 250 250 250 251 251
281 280 279 278 277 276 275 274 274 272 271 270 268 266 265 263 262 261 259 259 258 257 256 257 257 255 254 252 251 252 253 254 256 254 252 253 253 253 254 255 255 254 253 252 252 251 249 247 248 249 250 251 251 251 251 251 251 251 251 252 252 252 252 252 251 250 249 248 249 249 249 250 251 251
279 278 277 277 276 276 276 276 275 274 272 271 269 268 266 265 263 261 259 257 257 256 256 256 256 256 255 253 252 253 253 253 252 251 251 252 252 251 252 254 255 255 253 253 253 251 250 248 248 249 250 251 252 252 252 251 251 251 250 251 251 251 251 251 250 249 248 247 248 248 248 249 250 252
278 277 276 276 276 277 277 276 275 274 273 272 271 270 268 267 265 263 261 258 255 255 254 253 253 254 254 254 253 252 250 249 247 246 249 250 250 251 252 252 254 256 254 253 254 253 250 249 249 250 251 252 253 253 253 252 251 251 251 250 250 250 250 250 249 248 247 246 246 247 248 249 250 251
277 276 275 276 276 276 275 275 274 274 273 273 272 271 270 269 267 265 263 260 257 254 253 252 251 251 250 250 248 246 244 244 244 243 243 245 247 250 251 251 254 256 254 253 255 255 251 248 249 251 251 251 252 252 253 253 252 251 250 249 249 249 249 249 248 247 246 245 245 246 247 248 249 250
276 276 276 276 276 275 275 275 276 276 276 275 275 274 274 273 272 269 266 262 260 257 253 252 250 249 248 246 243 241 242 242 242 240 238 243 247 248 247 247 250 254 254 253 255 256 253 249 248 251 252 252 252 251 252 252 252 251 249 248 247 247 247 247 247 246 245 244 244 245 246 247 248 249
279 279 278 278 278 278 279 280 280 279 278 277 277 277 277 277 276 274 271 266 262 258 255 252 249 248 248 245 240 238 240 241 241 240 239 244 248 246 241 240 244 251 255 256 255 256 256 253 250 249 251 252 252 252 251 251 251 250 249 247 246 246 245 246 246 245 244 244 244 244 246 247 248 249
283 284 284 284 283 284 285 286 286 286 285 284 284 283 282 280 277 273 271 269 266 262 257 253 248 246 246 244 240 235 236 239 238 235 234 240 246 246 241 240 244 251 256 256 254 255 257 256 254 250 249 250 252 252 251 250 250 249 248 246 245 245 244 244 244 244 243 243 243 244 245 246 248 248
285 287 289 290 291 292 294 295 294 295 294 293 292 291 288 284 278 270 264 264 265 264 260 255 249 244 242 243 240 234 231 234 236 232 230 233 240 241 239 243 248 252 254 253 253 254 255 255 255 253 248 248 250 251 251 250 249 248 247 245 244 244 244 244 244 243 243 242 243 244 245 246 248 249
285 287 290 293 296 298 299 298 298 298 297 296 294 293 290 286 281 274 267 262 260 259 258 256 251 245 240 240 240 233 227 229 233 232 229 229 234 239 242 247 250 248 248 250 250 251 253 253 254 254 252 252 251 251 251 250 248 247 246 245 243 242 243 243 243 242 242 242 243 244 246 247 248 249
282 284 289 293 297 300 300 299 298 297 296 294 292 291 289 286 283 278 273 270 265 260 256 254 253 248 241 237 238 233 223 222 228 229 228 229 233 241 245 246 245 241 241 245 247 249 251 252 253 256 259 259 256 251 249 248 247 246 245 244 242 241 241 242 241 241 241 242 243 244 246 247 248 249
278 282 290 295 298 300 299 296 294 294 293 292 292 291 289 286 284 281 278 275 270 263 257 253 251 250 245 238 237 232 219 216 221 224 227 230 233 237 238 234 234 234 234 239 244 248 250 253 256 259 260 259 256 251 246 244 244 244 243 242 241 240 240 240 240 241 241 242 243 245 246 247 247 248
276 282 291 297 299 298 295 292 291 293 293 291 290 289 288 285 284 284 283 279 269 259 256 253 248 248 245 238 235 230 217 213 219 224 227 232 234 235 233 229 228 229 231 235 242 247 251 254 257 258 256 254 253 250 245 242 242 242 242 241 240 239 239 239 240 240 241 242 244 245 246 246 246 246
276 283 290 295 296 295 295 294 293 293 292 287 283 282 283 283 285 287 287 282 269 252 248 249 245 242 241 235 231 225 215 212 218 226 232 236 239 237 232 227 227 228 231 235 240 246 251 256 258 256 252 249 249 247 245 242 240 238 238 238 238 238 237 237 237 238 240 241 243 244 244 245 244 245
277 284 287 290 294 295 297 298 295 290 286 283 280 277 276 278 284 290 290 285 275 257 247 245 239 234 232 228 224 217 212 211 215 226 235 238 237 234 228 225 226 229 232 236 240 245 251 255 256 252 247 245 245 245 244 242 238 235 233 233 234 235 235 234 235 236 237 238 240 241 242 243 243 244
279 285 286 289 294 296 295 297 295 288 280 279 279 275 274 277 284 290 290 284 275 261 249 242 234 228 224 222 218 212 209 210 214 225 235 236 232 229 226 224 226 229 233 238 240 245 250 252 250 246 243 242 242 241 240 238 236 233 230 229 230 230 231 232 232 233 235 236 238 239 240 241 242 243
281 285 288 291 294 294 293 294 294 288 280 279 278 275 275 279 284 287 285 277 268 255 241 231 222 217 216 216 212 207 207 211 215 223 231 231 228 225 223 224 226 229 234 240 242 245 250 251 245 240 240 240 239 239 238 235 233 232 228 226 227 227 228 230 231 233 234 235 236 237 238 239 240 241
283 287 290 291 293 295 295 293 293 290 285 280 277 277 278 279 279 278 270 260 252 236 219 212 205 202 207 210 205 203 207 213 216 221 225 225 223 222 221 223 227 231 236 242 244 246 249 247 240 236 237 236 234 234 233 229 228 229 226 225 226 226 228 230 231 232 233 234 235 235 236 237 238 240
286 289 290 290 292 294 290 288 289 288 284 280 277 277 275 268 262 254 241 233 224 209 201 204 205 208 211 205 201 206 213 216 218 221 223 221 219 219 221 224 229 234 237 241 244 246 244 239 234 232 232 231 228 227 226 224 224 224 223 224 226 226 226 227 228 229 230 231 232 233 234 235 237 238
288 290 290 291 292 290 283 286 288 283 278 280 277 270 259 246 238 234 235 235 220 208 207 206 210 220 216 205 202 210 215 216 219 222 221 218 216 219 222 225 230 234 238 242 244 242 237 232 230 229 228 226 222 221 220 221 221 221 220 221 222 220 220 221 223 224 226 227 228 229 231 233 235 237
292 294 295 295 293 287 281 283 282 268 260 261 256 253 256 254 245 238 239 239 229 221 216 207 207 217 214 205 203 211 214 215 218 218 214 213 214 217 221 225 229 233 238 241 239 233 229 228 227 225 223 220 217 217 218 218 218 216 216 216 215 214 216 218 218 219 222 224 225 227 229 231 233 235
301 300 300 300 299 294 286 278 262 250 254 259 265 279 285 276 262 247 240 239 235 230 221 208 206 211 209 204 205 210 213 214 213 210 209 211 215 219 224 227 232 236 239 237 229 222 223 225 223 220 217 215 214 214 215 215 212 210 209 210 209 209 211 212 212 215 219 221 223 225 228 231 233 234
311 310 315 324 333 347 358 322 286 289 301 305 306 311 306 285 254 229 222 226 228 227 219 208 204 206 207 207 206 204 206 209 207 206 210 215 219 224 228 232 235 237 234 226 218 217 220 221 218 216 214 212 211 211 210 209 206 204 204 204 204 205 204 203 205 211 216 220 222 226 229 232 235 236
336 345 357 11 26 38 43 19 327 316 321 327 326 322 317 292 235 211 207 212 217 219 217 208 202 202 204 205 202 197 199 207 208 209 213 219 223 227 231 233 232 225 218 214 213 214 215 214 213 213 211 209 208 206 204 203 200 198 198 199 200 201 198 196 200 205 212 218 222 226 231 235 237 239
3 5 4 9 18 13 13 4 343 328 329 351 355 346 338 303 234 215 204 206 212 213 210 204 201 202 205 205 202 200 203 211 216 219 222 224 227 229 230 227 218 210 209 212 211 209 208 207 208 209 207 204 202 201 199 197 194 192 192 193 194 194 192 191 195 200 208 217 221 226 232 237 239 240
12 3 349 349 3 359 349 346 351 350 357 33 32 14 26 133 132 127 148 178 192 193 195 196 198 202 205 206 206 209 212 218 224 230 233 233 231 226 221 213 206 205 208 209 206 203 204 204 204 205 202 198 196 195 193 191 188 185 185 186 185 185 186 188 192 199 208 217 222 228 233 237 242 245
9 348 329 341 357 358 358 355 351 350 359 47 70 14 19 104 139 140 122 129 159 178 189 195 199 205 210 213 216 220 222 224 227 231 236 236 228 217 211 205 203 205 207 204 200 200 201 201 200 200 197 192 189 187 186 184 182 179 179 179 178 178 180 185 190 198 207 214 222 230 235 239 245 250
2 333 315 337 350 352 4 1 350 352 7 38 121 8 20 68 128 159 172 185 218 234 232 226 226 227 227 226 227 227 228 229 226 224 229 230 218 208 205 203 202 204 203 198 195 197 198 197 197 196 192 186 182 180 180 180 178 175 173 172 172 174 179 185 190 197 205 212 218 228 236 243 249 252
351 323 305 324 340 337 339 344 344 348 356 7 15 276 318 27 91 124 206 245 255 263 269 267 260 252 244 238 234 229 228 226 219 215 219 219 209 203 203 202 202 202 198 193 192 194 195 195 194 192 187 181 177 176 177 177 173 169 169 170 173 178 181 185 190 195 201 208 215 223 233 244 252 256
336 318 301 304 315 318 317 322 329 330 329 330 326 292 263 252 235 208 224 251 259 268 277 277 270 262 252 244 235 226 221 217 210 207 211 210 203 200 201 201 200 196 193 191 190 192 194 194 193 189 183 177 174 175 176 173 169 167 170 173 176 180 182 183 187 192 195 201 209 216 224 234 247 257
309 297 290 288 288 292 296 301 305 307 306 304 300 288 264 247 240 232 219 229 265 276 275 272 269 261 247 236 224 214 209 204 199 200 204 204 201 199 198 197 193 190 190 189 188 191 193 192 191 188 181 173 173 176 175 172 169 169 172 174 175 178 182 186 189 190 187 190 198 206 217 228 241 256
289 275 273 276 278 280 285 288 290 292 292 291 290 278 247 232 232 232 224 221 254 273 270 274 277 262 230 215 206 199 195 192 191 194 196 197 197 196 193 189 186 186 188 188 188 192 193 189 188 186 178 174 177 177 172 170 171 172 176 178 176 176 182 189 194 192 183 181 186 199 217 234 247 260
275 269 266 266 269 273 277 279 281 286 289 289 283 260 236 228 224 224 224 224 228 247 280 292 290 256 204 193 188 185 186 187 187 188 187 190 194 192 185 182 183 186 188 189 191 194 192 188 185 182 177 179 181 176 169 171 174 176 180 183 180 178 184 190 195 192 182 177 189 218 234 251 269 281
264 261 260 259 260 265 269 275 283 287 289 290 275 238 223 234 225 213 208 207 204 205 297 302 283 241 193 184 178 172 173 178 181 182 183 186 188 184 178 178 183 188 190 191 193 194 191 186 182 179 179 182 182 176 173 177 178 178 182 186 186 187 190 194 198 193 182 181 204 231 241 265 289 295
276 263 257 254 257 262 265 275 286 289 290 291 266 215 208 261 216 193 187 184 177 156 130 286 279 261 184 179 175 167 165 170 175 177 178 178 177 176 176 179 184 188 190 191 192 192 187 181 178 179 180 181 182 181 181 181 181 182 186 189 191 194 198 202 204 196 185 186 194 203 216 242 287 301
299 279 263 255 255 258 263 271 281 287 293 288 221 194 204 232 163 166 168 166 158 141 136 203 282 189 153 156 156 156 158 162 165 167 168 170 171 173 175 178 180 181 186 189 188 184 178 176 179 182 181 180 184 187 185 181 183 188 190 190 192 197 203 207 207 197 189 187 187 186 185 177 163 234
321 306 287 267 256 253 256 261 268 278 288 232 185 186 187 142 146 153 154 148 148 156 157 143 127 130 138 138 136 140 144 147 153 161 164 168 170 170 170 171 171 173 178 183 180 176 176 179 182 183 181 181 187 189 185 183 187 192 193 192 192 195 202 208 207 196 188 184 185 189 185 166 161 193
Height
2886 2885 2885 2884 2884 2885 2885 2884 2884 2884 2883 2883 2882 2882 2882 2880 2877 2875 2873 2873 2877 2881 2883 2884 2888 2893 2895 2895 2896 2897 2898 2901 2904 2906 2909 2911 2911 2914 2916 2918 2920 2922 2924 2925 2927 2929 2931 2932 2934 2936 2938 2939 2941 2942 2944 2947 2950 2953 2955 2957 2959 2962 2965 2967 2969 2970 2971 2973 2976 2979 2982 2985 2988 2990
2874 2873 2873 2873 2872 2873 2873 2872 2872 2873 2872 2872 2872 2871 2872 2872 2869 2867 2864 2862 2866 2872 2873 2874 2877 2881 2885 2888 2888 2887 2887 2890 2894 2896 2900 2902 2903 2904 2906 2908 2911 2913 2915 2917 2919 2921 2922 2924 2926 2928 2930 2931 2932 2934 2935 2938 2941 2944 2946 2948 2951 2954 2957 2959 2962 2964 2965 2967 2969 2972 2974 2977 2980 2983
2864 2862 2862 2862 2861 2862 2862 2861 2861 2861 2860 2861 2861 2861 2861 2861 2860 2860 2857 2851 2855 2864 2864 2864 2868 2870 2874 2880 2881 2880 2879 2879 2883 2887 2890 2893 2895 2896 2896 2898 2902 2904 2907 2909 2911 2912 2914 2916 2918 2919 2921 2923 2924 2926 2928 2929 2932 2935 2938 2940 2943 2946 2949 2952 2954 2956 2958 2960 2962 2965 2968 2970 2973 2976
2853 2852 2852 2852 2851 2851 2850 2850 2850 2850 2850 2850 2851 2850 2850 2851 2850 2850 2848 2842 2844 2853 2855 2854 2858 2861 2864 2869 2871 2872 2872 2870 2871 2877 2881 2883 2886 2887 2887 2889 2892 2895 2898 2901 2902 2904 2906 2908 2910 2911 2913 2914 2916 2918 2920 2921 2923 2926 2930 2932 2935 2937 2940 2943 2946 2949 2951 2953 2955 2958 2961 2963 2966 2969
2844 2841 2841 2841 2841 2840 2839 2838 2839 2839 2839 2839 2839 2840 2840 2840 2841 2841 2839 2835 2834 2841 2845 2845 2848 2852 2854 2857 2860 2864 2865 2863 2862 2866 2871 2873 2875 2877 2879 2880 2882 2886 2889 2892 2893 2895 2897 2899 2901 2903 2904 2906 2908 2909 2911 2913 2916 2918 2921 2923 2926 2929 2931 2934 2938 2941 2943 2945 2948 2951 2953 2956 2959 2962
2833 2831 2831 2831 2831 2830 2828 2828 2829 2828 2829 2828 2828 2829 2830 2829 2831 2832 2831 2828 2825 2828 2833 2836 2838 2842 2844 2845 2850 2854 2855 2856 2857 2857 2860 2863 2865 2867 2870 2871 2873 2877 2880 2883 2885 2887 2889 2891 2892 2894 2896 2897 2900 2902 2904 2905 2908 2910 2912 2915 2918 2921 2923 2926 2929 2932 2935 2937 2940 2943 2946 2949 2951 2954
2823 2820 2820 2821 2821 2820 2818 2817 2818 2818 2818 2818 2817 2819 2820 2819 2820 2822 2822 2820 2818 2817 2822 2826 2829 2832 2834 2835 2839 2843 2845 2847 2849 2850 2851 2854 2855 2857 2860 2862 2864 2868 2871 2874 2877 2879 2880 2882 2884 2885 2887 2888 2891 2894 2896 2898 2900 2903 2905 2907 2910 2913 2916 2919 2921 2925 2927 2929 2932 2935 2938 2941 2943 2946
2814 2811 2811 2811 2811 2810 2808 2807 2808 2808 2809 2809 2808 2808 2809 2809 2809 2811 2813 2812 2811 2810 2811 2815 2819 2822 2825 2826 2828 2833 2836 2837 2840 2842 2844 2845 2846 2848 2851 2853 2855 2859 2863 2865 2868 2871 2872 2874 2876 2877 2879 2880 2882 2884 2887 2890 2893 2895 2898 2900 2903 2906 2908 2911 2914 2917 2919 2922 2924 2927 2930 2933 2935 2938
2805 2803 2802 2802 2802 2800 2799 2798 2799 2800 2799 2799 2799 2798 2799 2800 2800 2801 2803 2803 2804 2803 2802 2804 2809 2812 2815 2817 2820 2823 2827 2828 2831 2835 2836 2837 2839 2840 2842 2844 2846 2850 2854 2855 2859 2863 2865 2867 2868 2869 2871 2872 2874 2876 2879 2882 2885 2887 2890 2893 2896 2898 2901 2904 2907 2909 2912 2914 2917 2919 2922 2925 2927 2930
2797 2795 2793 2793 2793 2791 2790 2790 2791 2791 2791 2790 2789 2789 2789 2790 2791 2791 2792 2794 2794 2794 2794 2796 2799 2802 2805 2808 2811 2815 2819 2821 2824 2827 2827 2829 2831 2832 2834 2836 2836 2840 2844 2847 2851 2854 2857 2859 2860 2861 2863 2864 2866 2868 2871 2874 2877 2879 2882 2885 2888 2891 2894 2896 2899 2902 2904 2907 2909 2912 2915 2917 2920 2922
2788 2787 2785 2784 2784 2784 2783 2783 2783 2783 2782 2781 2780 2780 2781 2781 2781 2781 2782 2784 2784 2785 2786 2788 2790 2793 2796 2799 2802 2807 2812 2813 2816 2819 2820 2821 2823 2824 2826 2828 2828 2830 2835 2840 2842 2846 2849 2851 2852 2854 2855 2856 2858 2861 2863 2866 2869 2872 2875 2878 2881 2883 2886 2889 2891 2894 2897 2900 2902 2905 2908 2910 2913 2915
2780 2779 2778 2777 2777 2777 2776 2776 2775 2775 2774 2773 2772 2772 2773 2772 2772 2772 2772 2773 2775 2776 2777 2779 2782 2785 2788 2791 2795 2800 2803 2804 2807 2810 2812 2814 2815 2816 2819 2821 2821 2821 2827 2831 2834 2838 2841 2843 2845 2847 2849 2850 2852 2854 2856 2858 2862 2865 2868 2871 2873 2876 2879 2881 2884 2887 2889 2892 2895 2898 2901 2903 2906 2908
2773 2772 2771 2771 2771 2771 2770 2769 2768 2768 2767 2766 2764 2765 2765 2764 2763 2763 2763 2764 2765 2767 2768 2770 2773 2776 2779 2783 2789 2791 2793 2795 2798 2803 2806 2807 2809 2811 2812 2814 2814 2814 2819 2823 2826 2829 2834 2837 2839 2840 2841 2844 2845 2847 2848 2851 2855 2858 2861 2863 2866 2869 2871 2874 2877 2880 2882 2885 2888 2891 2894 2896 2899 2901
2766 2766 2765 2765 2765 2764 2764 2763 2762 2762 2761 2760 2758 2758 2757 2756 2755 2755 2754 2755 2756 2758 2759 2762 2765 2767 2769 2775 2781 2784 2786 2789 2792 2797 2800 2800 2803 2805 2806 2808 2808 2807 2811 2817 2819 2820 2825 2830 2833 2833 2834 2836 2838 2840 2842 2845 2848 2850 2853 2856 2858 2861 2864 2867 2869 2872 2875 2878 2881 2884 2887 2889 2892 2894
2759 2760 2760 2759 2759 2758 2758 2757 2756 2756 2755 2754 2753 2752 2751 2750 2749 2747 2745 2746 2747 2748 2750 2752 2756 2758 2760 2766 2773 2777 2780 2783 2786 2790 2793 2794 2795 2797 2798 2801 2802 2801 2805 2811 2813 2814 2817 2822 2826 2828 2828 2830 2831 2833 2836 2838 2840 2843 2845 2848 2851 2854 2857 2859 2862 2866 2869 2872 2875 2877 2880 2882 2885 2887
2752 2753 2753 2753 2753 2752 2752 2751 2750 2749 2748 2747 2747 2746 2745 2744 2743 2742 2740 2737 2738 2738 2740 2742 2745 2749 2752 2757 2764 2769 2774 2778 2781 2783 2786 2788 2788 2790 2792 2794 2795 2797 2800 2804 2807 2809 2811 2814 2818 2821 2823 2824 2824 2827 2829 2831 2833 2835 2838 2841 2844 2847 2850 2853 2856 2859 2862 2865 2868 2870 2873 2876 2878 2880
2747 2747 2747 2747 2746 2746 2745 2744 2743 2741 2739 2739 2738 2737 2736 2735 2735 2735 2735 2734 2732 2730 2730 2731 2734 2740 2744 2748 2754 2761 2767 2772 2774 2776 2778 2781 2783 2784 2786 2787 2789 2794 2796 2798 2801 2804 2806 2808 2810 2812 2815 2818 2819 2820 2822 2824 2826 2828 2831 2834 2837 2840 2843 2846 2849 2852 2855 2858 2861 2864 2866 2869 2871 2873
2743 2743 2743 2741 2740 2740 2739 2738 2736 2734 2732 2730 2729 2728 2727 2726 2725 2725 2726 2727 2726 2724 2722 2720 2723 2730 2736 2739 2745 2754 2760 2764 2767 2769 2772 2775 2777 2779 2781 2782 2784 2789 2792 2793 2795 2796 2799 2803 2804 2805 2808 2811 2813 2815 2816 2818 2820 2822 2825 2828 2831 2834 2837 2840 2843 2846 2848 2851 2854 2857 2860 2862 2865 2867
2740 2739 2739 2737 2735 2734 2733 2732 2731 2729 2726 2723 2721 2720 2719 2718 2717 2716 2715 2716 2717 2716 2715 2713 2714 2721 2727 2732 2737 2745 2753 2757 2760 2763 2767 2770 2772 2774 2775 2776 2777 2783 2786 2787 2787 2789 2794 2797 2799 2801 2803 2804 2807 2810 2812 2813 2815 2817 2819 2822 2825 2828 2831 2834 2837 2839 2842 2845 2848 2851 2854 2856 2858 2860
2736 2735 2734 2733 2731 2729 2727 2726 2725 2724 2721 2717 2712 2710 2710 2709 2708 2707 2707 2708 2707 2706 2706 2706 2708 2713 2719 2726 2731 2738 2746 2751 2754 2758 2761 2764 2766 2767 2768 2769 2770 2775 2780 2781 2781 2784 2789 2793 2795 2797 2798 2799 2800 2804 2806 2808 2810 2812 2814 2816 2819 2822 2825 2828 2831 2833 2836 2839 2842 2845 2847 2849 2851 2853
2732 2731 2730 2728 2726 2724 2722 2721 2720 2719 2717 2713 2708 2703 2701 2701 2700 2699 2699 2700 2700 2700 2699 2700 2703 2707 2712 2719 2725 2732 2739 2744 2749 2752 2754 2756 2759 2761 2761 2762 2765 2769 2773 2776 2778 2780 2784 2788 2790 2791 2793 2794 2795 2797 2800 2803 2806 2807 2809 2811 2814 2817 2820 2822 2825 2828 2831 2833 2836 2838 2841 2843 2845 2847
2727 2726 2725 2725 2722 2719 2716 2715 2715 2714 2711 2709 2705 2701 2697 2694 2693 2693 2693 2691 2691 2693 2693 2694 2697 2701 2705 2711 2717 2724 2731 2738 2743 2745 2747 2751 2754 2755 2756 2758 2761 2765 2768 2771 2775 2777 2780 2784 2785 2786 2788 2789 2789 2792 2796 2799 2801 2803 2805 2807 2809 2812 2815 2818 2820 2823 2825 2828 2830 2832 2834 2837 2839 2841
2722 2721 2720 2719 2717 2715 2712 2710 2709 2708 2705 2702 2700 2698 2694 2691 2689 2689 2688 2685 2684 2685 2686 2687 2690 2694 2698 2703 2709 2716 2723 2730 2736 2739 2741 2746 2749 2749 2751 2755 2757 2760 2764 2767 2772 2775 2777 2779 2780 2781 2783 2783 2785 2789 2792 2794 2796 2798 2800 2803 2805 2808 2810 2812 2815 2817 2820 2822 2824 2827 2829 2831 2833 2835
2716 2715 2714 2713 2712 2710 2708 2705 2703 2701 2699 2697 2694 2692 2690 2687 2686 2686 2685 2682 2680 2680 2681 2683 2685 2688 2693 2698 2703 2710 2716 2723 2730 2733 2736 2740 2742 2744 2747 2751 2754 2757 2760 2764 2768 2771 2773 2774 2775 2777 2778 2779 2783 2786 2787 2789 2791 2793 2796 2799 2801 2804 2806 2808 2810 2812 2815 2817 2820 2822 2824 2826 2827 2829
2710 2709 2708 2706 2705 2704 2702 2700 2698 2696 2694 2693 2690 2687 2684 2683 2684 2684 2682 2679 2679 2679 2679 2681 2684 2687 2691 2696 2700 2706 2712 2719 2724 2728 2731 2734 2737 2740 2744 2747 2751 2754 2757 2760 2764 2767 2767 2768 2771 2773 2774 2777 2780 2782 2783 2785 2787 2790 2793 2795 2797 2800 2802 2804 2806 2808 2810 2813 2815 2817 2819 2821 2823 2824
2705 2704 2702 2700 2699 2699 2697 2695 2693 2691 2690 2688 2686 2683 2681 2681 2681 2681 2680 2679 2679 2679 2679 2682 2684 2687 2691 2695 2699 2704 2710 2716 2720 2722 2726 2730 2733 2737 2741 2745 2748 2751 2754 2757 2759 2761 2763 2764 2766 2769 2771 2774 2777 2778 2779 2782 2784 2786 2789 2791 2793 2796 2798 2801 2803 2805 2807 2809 2811 2813 2815 2816 2818 2820
2701 2699 2696 2694 2693 2693 2692 2690 2689 2687 2685 2683 2681 2679 2678 2678 2679 2679 2679 2678 2679 2679 2680 2682 2685 2688 2691 2695 2699 2704 2709 2713 2716 2719 2723 2728 2731 2735 2739 2742 2744 2748 2750 2752 2754 2757 2759 2760 2762 2765 2768 2771 2773 2774 2776 2779 2781 2783 2786 2788 2790 2793 2795 2797 2799 2801 2803 2805 2807 2809 2811 2812 2814 2816
2697 2694 2691 2689 2688 2687 2686 2685 2684 2683 2681 2680 2678 2677 2676 2677 2677 2678 2678 2678 2679 2680 2681 2683 2686 2689 2691 2694 2698 2702 2706 2710 2714 2717 2721 2726 2730 2733 2736 2738 2740 2743 2745 2747 2750 2753 2755 2756 2759 2762 2764 2767 2769 2771 2773 2776 2778 2780 2783 2785 2787 2790 2792 2794 2796 2798 2800 2802 2804 2805 2807 2809 2810 2812
2693 2690 2687 2684 2683 2682 2681 2680 2680 2679 2678 2678 2677 2676 2676 2676 2676 2677 2677 2677 2678 2680 2681 2683 2686 2689 2691 2694 2698 2701 2704 2708 2711 2715 2719 2723 2726 2728 2730 2732 2735 2738 2740 2743 2746 2749 2751 2753 2756 2759 2761 2763 2766 2768 2771 2773 2775 2778 2780 2782 2785 2787 2789 2791 2793 2795 2797 2798 2800 2802 2804 2805 2806 2808
2690 2687 2684 2682 2679 2678 2677 2677 2677 2677 2677 2677 2676 2675 2675 2674 2674 2674 2675 2676 2677 2679 2681 2683 2685 2688 2691 2694 2697 2700 2702 2705 2709 2713 2716 2719 2721 2723 2726 2729 2732 2734 2737 2740 2743 2745 2747 2750 2753 2756 2758 2761 2763 2766 2768 2771 2773 2775 2778 2780 2782 2784 2787 2789 2791 2792 2794 2795 2797 2799 2800 2801 2803 2804
2688 2685 2682 2680 2678 2677 2677 2677 2677 2678 2677 2677 2676 2674 2673 2672 2671 2672 2673 2675 2677 2679 2681 2683 2685 2688 2691 2694 2696 2699 2701 2704 2707 2710 2713 2715 2718 2720 2723 2726 2728 2731 2734 2737 2740 2742 2745 2748 2751 2753 2756 2758 2761 2763 2766 2768 2770 2773 2775 2778 2780 2782 2785 2787 2788 2789 2791 2792 2794 2795 2796 2797 2799 2800
2686 2683 2680 2679 2679 2678 2677 2677 2677 2677 2677 2676 2675 2674 2672 2671 2671 2671 2672 2674 2676 2678 2681 2683 2685 2687 2690 2692 2695 2698 2700 2702 2705 2708 2710 2712 2715 2717 2719 2722 2725 2728 2731 2733 2736 2740 2743 2746 2748 2751 2753 2756 2758 2761 2763 2765 2768 2771 2774 2776 2778 2780 2783 2784 2786 2787 2789 2790 2791 2792 2793 2794 2795 2796
2684 2682 2681 2681 2681 2680 2679 2678 2678 2677 2676 2676 2675 2674 2673 2673 2672 2673 2673 2675 2676 2678 2680 2682 2684 2687 2689 2692 2695 2697 2699 2701 2703 2705 2707 2710 2712 2714 2716 2719 2722 2725 2728 2731 2734 2737 2740 2743 2746 2748 2751 2754 2756 2759 2761 2763 2766 2769 2772 2774 2777 2779 2781 2782 2784 2785 2786 2787 2788 2789 2790 2791 2792 2793
2684 2683 2683 2683 2682 2681 2680 2679 2678 2678 2677 2676 2675 2675 2675 2675 2675 2675 2676 2677 2678 2680 2681 2683 2685 2687 2690 2692 2694 2696 2698 2700 2701 2703 2705 2707 2709 2711 2714 2716 2719 2722 2725 2728 2732 2735 2738 2740 2743 2746 2749 2751 2754 2757 2759 2762 2765 2767 2770 2773 2775 2777 2779 2781 2782 2783 2784 2785 2786 2787 2787 2788 2789 2790
2685 2685 2685 2684 2683 2682 2681 2680 2679 2679 2678 2678 2677 2676 2676 2677 2677 2678 2679 2680 2681 2682 2683 2685 2687 2688 2690 2692 2693 2695 2697 2698 2700 2701 2703 2704 2707 2709 2712 2714 2717 2720 2723 2726 2730 2733 2736 2739 2742 2744 2746 2749 2752 2755 2758 2761 2764 2766 2769 2772 2774 2776 2778 2779 2780 2781 2782 2783 2784 2784 2785 2786 2787 2787
2686 2686 2685 2685 2684 2683 2682 2681 2680 2680 2679 2679 2678 2677 2677 2678 2679 2680 2681 2681 2682 2683 2684 2685 2686 2687 2688 2690 2691 2693 2694 2696 2698 2699 2700 2702 2705 2707 2709 2712 2715 2718 2722 2725 2728 2731 2734 2737 2740 2742 2745 2748 2751 2754 2757 2760 2763 2766 2768 2771 2773 2775 2776 2778 2779 2779 2780 2781 2782 2783 2783 2784 2784 2785
2687 2686 2686 2685 2684 2683 2682 2682 2681 2681 2680 2680 2680 2679 2679 2679 2680 2681 2682 2682 2683 2683 2684 2684 2685 2685 2686 2687 2688 2689 2691 2693 2695 2697 2699 2701 2703 2706 2708 2710 2713 2717 2720 2724 2727 2730 2732 2735 2738 2740 2744 2747 2750 2753 2756 2759 2762 2765 2768 2770 2772 2774 2775 2776 2777 2778 2779 2780 2781 2781 2782 2782 2783 2783
2687 2686 2685 2684 2683 2683 2682 2682 2682 2681 2681 2680 2680 2680 2680 2680 2680 2681 2682 2683 2683 2684 2684 2684 2684 2684 2684 2684 2685 2686 2688 2690 2693 2696 2697 2699 2702 2704 2707 2710 2713 2716 2720 2723 2726 2728 2731 2733 2736 2739 2743 2746 2750 2753 2756 2759 2761 2764 2767 2769 2771 2773 2774 2775 2776 2777 2778 2779 2779 2780 2781 2781 2781 2781
2686 2686 2685 2684 2683 2683 2682 2682 2681 2681 2680 2680 2680 2680 2680 2680 2681 2681 2682 2682 2683 2683 2683 2683 2683 2683 2683 2683 2683 2684 2686 2689 2691 2694 2696 2699 2701 2704 2707 2710 2713 2716 2719 2721 2725 2727 2729 2732 2735 2739 2742 2746 2749 2752 2755 2759 2761 2764 2766 2768 2770 2772 2773 2774 2775 2776 2777 2778 2778 2779 2779 2780 2780 2780
2686 2685 2684 2684 2683 2682 2682 2681 2681 2680 2680 2679 2680 2680 2680 2680 2680 2681 2682 2682 2683 2683 2683 2683 2682 2682 2682 2682 2683 2684 2686 2688 2691 2693 2696 2699 2701 2704 2707 2710 2712 2715 2718 2721 2724 2726 2728 2731 2735 2739 2743 2746 2748 2751 2755 2758 2761 2764 2765 2767 2769 2771 2772 2773 2774 2775 2776 2777 2778 2778 2778 2779 2779 2780
2685 2684 2684 2683 2683 2682 2682 2681 2680 2680 2680 2679 2679 2679 2679 2679 2680 2681 2682 2682 2683 2683 2683 2683 2682 2682 2682 2682 2683 2684 2686 2688 2690 2693 2695 2698 2701 2704 2707 2710 2712 2715 2718 2720 2723 2725 2728 2731 2734 2738 2742 2745 2747 2750 2754 2757 2760 2762 2764 2766 2768 2770 2771 2773 2774 2775 2776 2776 2777 2778 2778 2778 2778 2779
2684 2683 2683 2682 2682 2681 2681 2681 2680 2680 2679 2679 2679 2679 2679 2679 2679 2680 2681 2682 2682 2683 2683 2683 2683 2683 2683 2683 2684 2685 2687 2689 2691 2693 2696 2699 2702 2704 2707 2710 2712 2715 2717 2720 2722 2725 2727 2730 2734 2738 2741 2744 2748 2751 2753 2756 2759 2761 2763 2765 2767 2769 2771 2772 2774 2775 2775 2776 2777 2777 2777 2778 2778 2778
2682 2682 2681 2681 2681 2681 2680 2680 2680 2679 2679 2678 2678 2678 2679 2679 2679 2679 2681 2682 2682 2683 2683 2684 2684 2684 2684 2684 2686 2687 2689 2691 2693 2695 2697 2700 2703 2705 2708 2710 2713 2715 2717 2719 2721 2724 2727 2731 2734 2738 2741 2744 2748 2750 2753 2755 2758 2761 2763 2765 2767 2769 2770 2772 2773 2774 2775 2776 2776 2777 2777 2777 2777 2777
2681 2680 2679 2679 2679 2679 2679 2679 2679 2679 2678 2678 2678 2678 2679 2679 2679 2680 2681 2682 2682 2683 2683 2684 2684 2685 2685 2686 2688 2689 2691 2693 2695 2696 2699 2701 2704 2706 2709 2711 2713 2715 2717 2719 2721 2724 2727 2731 2734 2737 2740 2744 2747 2749 2752 2755 2758 2760 2762 2764 2766 2768 2769 2771 2772 2773 2774 2775 2776 2777 2777 2777 2777 2777
2680 2679 2678 2677 2677 2678 2678 2678 2678 2678 2678 2678 2678 2678 2679 2679 2680 2681 2682 2682 2683 2683 2683 2684 2685 2686 2688 2689 2690 2691 2693 2694 2696 2698 2700 2702 2705 2707 2709 2712 2714 2716 2717 2719 2722 2725 2727 2730 2733 2737 2741 2744 2746 2748 2751 2755 2757 2759 2761 2763 2765 2767 2769 2770 2771 2772 2774 2775 2776 2777 2777 2777 2777 2778